Simultaneous Nadir Overpasses (SNOs) Predictions

Prediction of SNOs between NOAA-19 and METOP-C Satellite Orbit:

Table of predicted SNOs for the next 14.0 days since TLE Epoch: 6/17/2023
Index Date (NOAA-19) Time (NOAA-19) Lat,Lon (NOAA-19) SZA (NOAA-19 ) Date (METOP-C) Time (METOP-C) Lat,Lon (METOP-C) SZA (METOP-C ) Distance(km) Time Diff (sec)
1 06/18/2023 20:43:42 -80.91, 83.05 120.91 06/18/2023 20:44:53 -80.91, 83.01 120.88 0.77 71
2 06/18/2023 21:34:44 80.92,-109.57 59.11 06/18/2023 21:35:33 80.91,-109.66 59.12 1.64 49
3 06/18/2023 22:25:40 -80.92, 57.95 120.87 06/18/2023 22:26:14 -80.92, 57.89 120.86 1.17 34
4 06/18/2023 23:16:42 80.92,-134.67 59.15 06/18/2023 23:16:54 80.92,-134.79 59.15 2.09 12
5 06/19/2023 00:07:39 -80.92, 32.47 120.87 06/19/2023 00:07:36 -80.91, 32.40 120.88 1.42 3
6 06/19/2023 00:58:41 80.92,-160.14 59.15 06/19/2023 00:58:16 80.91,-160.28 59.12 2.52 25
7 06/19/2023 01:49:37 -80.92, 7.37 120.83 06/19/2023 01:48:57 -80.92, 7.27 120.85 1.75 40
8 06/19/2023 02:40:39 80.93, 174.76 59.19 06/19/2023 02:39:37 80.92, 174.60 59.15 2.94 62
9 06/30/2023 08:56:06 80.91, 79.92 59.27 06/30/2023 08:57:05 80.92, 80.02 59.31 1.88 59
10 06/30/2023 09:47:01 -80.91,-112.83 120.74 06/30/2023 09:47:48 -80.90,-112.93 120.73 1.77 47
11 06/30/2023 10:38:05 80.91, 54.44 59.28 06/30/2023 10:38:27 80.91, 54.53 59.29 1.51 22
12 06/30/2023 11:28:59 -80.91,-137.95 120.69 06/30/2023 11:29:09 -80.91,-138.06 120.70 2.03 10
13 06/30/2023 12:20:03 80.91, 29.33 59.32 06/30/2023 12:19:48 80.92, 29.39 59.32 1.09 15
14 06/30/2023 13:10:58 -80.91,-163.43 120.69 06/30/2023 13:10:31 -80.90,-163.56 120.72 2.44 27
15 06/30/2023 14:02:02 80.91, 3.85 59.32 06/30/2023 14:01:10 80.91, 3.90 59.30 0.94 52



Historial Predications of SNOs between NOAA-19 and METOP-C
